IRNSS-1A 1 39199U 13034A 21065.13819696 .00000073 00000-0 00000-0 0 9999 2 39199 31.4057 92.6221 0020542 189.9412 346.3394 1.00275327 28023 PSLV R/B 1 39200U 13034B 21063.16688087 .00003090 00000-0 52253-3 0 9993 2 39200 17.8661 7.2444 5924037 112.8834 318.1383 4.16485520114168